O3B MPOWER F3

Last updated on Sat Jul 18 2026 00:03:21 GMT+0000 (Coordinated Universal Time)

1 56368U 23059B 26198.59090041 -.00000025 00000+0 00000+0 0 9997 2 56368 0.0635 348.7667 0006661 123.6672 247.6327 5.00116419 56246
UTC large
Height (km)
Speed (km/s)
/
Latitude / Longitude
Inclination (degrees)
Orbital Period (minutes)
Azimuth
Elevation
Range (km)
Doppler Factor

Next 0 passes for location: London (51.5072 / 0.1276)

No passes found over London.
O3B MPOWER F3